Wind_Speed
16 16 16 15 15 16 16 17 16 16 16 16 16 16 17 19 20 20 21 22 22 23 23 24 24 24 24 24 25 25 25 25 25 26 27 27 26 27
17 17 17 17 17 17 17 17 17 16 16 17 18 18 18 19 20 21 20 21 22 22 23 23 23 23 23 23 24 24 25 25 26 27 27 27 27 28
17 18 18 18 18 18 17 17 17 17 17 17 18 19 19 19 20 21 21 21 22 22 23 22 23 23 23 24 24 24 24 25 25 26 27 27 28 28
18 19 19 19 18 18 18 18 18 18 18 18 18 19 19 19 20 21 21 22 22 22 23 23 23 24 24 25 25 25 25 25 25 26 27 28 28 29
19 19 19 19 18 18 18 18 18 19 19 19 19 19 19 20 20 20 22 22 22 22 23 23 23 24 25 25 26 26 27 27 27 27 27 28 28 29
19 19 19 19 18 19 19 19 19 19 19 20 20 20 20 20 21 21 21 21 22 23 23 23 23 24 25 25 26 27 27 28 28 28 28 28 28 28
20 20 20 19 19 19 19 19 19 19 19 20 20 20 20 20 20 21 21 21 22 24 24 24 24 25 26 26 27 27 28 28 28 28 28 28 29 29
21 21 20 20 19 20 20 20 20 20 20 20 20 20 21 21 21 22 22 22 23 24 25 25 25 25 26 26 26 27 28 28 28 29 29 29 29 29
22 21 20 20 20 20 20 20 20 20 21 21 21 21 21 22 22 23 23 23 24 24 24 24 25 25 25 25 26 27 27 28 29 29 29 29 29 29
21 22 21 21 21 20 20 21 21 22 22 22 22 23 23 23 23 23 24 24 24 25 25 25 26 26 25 25 26 27 27 28 28 29 29 29 29 29
22 22 22 21 21 21 21 21 21 22 23 23 23 23 23 24 24 24 24 25 25 26 26 25 25 25 25 26 26 27 27 28 28 28 28 29 29 29
22 22 22 22 22 22 21 21 22 23 23 24 24 23 24 24 24 24 24 25 25 25 26 26 25 25 25 26 27 28 28 28 28 28 28 28 28 28
22 22 22 23 23 23 23 23 23 23 24 24 24 24 24 24 24 24 24 25 25 24 25 25 26 26 26 26 27 28 28 28 28 28 28 28 28 29
24 24 23 23 24 24 24 24 24 23 24 24 25 25 25 25 25 25 25 25 26 26 26 26 26 26 26 26 26 27 27 28 28 28 28 28 28 28
25 25 25 24 24 24 24 24 24 24 24 25 25 25 26 26 26 25 26 26 26 26 26 26 26 26 26 25 25 25 26 26 27 27 27 27 27 28
26 26 26 25 25 25 25 25 25 25 26 26 26 26 26 26 26 25 25 25 25 25 25 25 25 25 24 24 25 25 25 25 25 26 26 26 27 27
26 26 26 25 25 25 25 26 26 27 26 26 26 26 25 25 25 26 26 26 25 24 24 24 24 24 24 24 24 24 24 24 25 25 25 25 26 26
26 26 26 26 26 26 26 27 27 27 27 26 26 27 26 25 25 26 25 24 23 23 23 24 24 24 24 24 23 23 23 23 23 24 25 24 24 25
26 26 26 26 27 27 27 27 27 27 26 26 26 26 25 25 25 25 24 23 22 22 23 23 23 23 23 24 24 24 23 22 22 22 22 22 22 23
27 27 27 27 27 27 27 28 27 27 27 27 26 25 26 26 25 24 24 23 23 22 22 22 22 23 23 23 23 22 22 21 21 20 20 21 21 22
28 28 28 28 28 28 28 28 27 26 27 27 26 26 26 26 26 25 24 23 23 22 22 22 23 23 23 23 22 22 21 21 20 20 20 20 20 21
29 28 28 29 29 29 29 28 28 28 28 28 27 26 26 26 25 24 23 23 23 22 23 23 23 22 22 22 21 21 21 21 21 21 21 21 21 22
29 28 28 29 29 29 28 28 28 28 28 28 27 26 26 25 25 24 24 23 23 23 23 23 23 22 22 22 22 22 22 21 21 22 22 23 23 23
Wind_Direction
298 299 300 300 299 299 298 296 295 291 290 288 284 282 279 273 270 270 272 271 271 271 271 270 270 269 267 266 267 264 264 264 264 264 264 264 266 266
297 297 298 298 299 299 297 295 293 290 288 287 286 284 282 279 275 274 272 272 272 273 273 272 271 271 269 268 268 267 266 266 266 265 265 265 266 266
296 296 296 298 298 298 296 294 293 291 289 287 287 287 283 280 277 275 274 274 273 273 274 273 272 271 270 269 267 267 268 269 269 267 267 267 268 268
294 294 295 297 295 295 294 293 294 293 290 289 289 289 288 283 278 277 276 275 274 273 274 272 272 272 271 270 268 268 269 270 269 268 268 268 268 269
295 295 295 294 294 294 294 293 294 294 292 290 291 293 291 288 282 279 277 276 275 275 276 274 273 273 272 271 270 270 270 269 269 269 269 270 269 270
295 295 294 291 292 292 292 293 294 295 294 292 291 291 289 289 285 281 280 278 277 276 277 276 275 274 274 273 271 270 270 270 269 269 270 270 271 271
294 294 293 290 289 290 291 292 294 295 295 295 293 291 290 289 287 285 283 281 280 280 280 279 278 276 275 275 273 272 271 271 270 269 271 271 271 271
294 296 293 291 290 291 291 291 291 293 294 294 293 292 290 289 287 286 284 283 282 282 283 282 280 278 278 276 275 273 272 271 270 270 271 271 271 272
296 296 294 291 290 290 291 291 291 291 293 294 293 292 291 289 287 287 286 286 285 283 283 283 283 282 280 279 277 275 273 272 271 271 271 272 271 272
294 295 293 291 291 290 290 291 291 292 293 294 293 292 291 290 289 288 287 287 286 285 285 285 282 283 282 281 279 278 277 275 273 273 273 273 272 273
294 294 293 292 290 290 292 292 292 292 293 295 295 293 291 289 288 288 287 286 285 285 285 285 283 281 280 281 281 280 279 277 275 274 274 274 274 275
294 295 294 292 291 292 293 294 294 294 294 296 295 294 293 291 289 288 288 287 286 285 284 283 282 282 281 280 279 280 279 278 276 273 274 275 274 275
291 294 294 293 290 291 292 293 294 294 295 295 296 295 295 293 291 290 291 290 288 287 286 285 285 284 284 282 281 281 279 277 276 275 274 275 275 274
289 290 290 292 291 290 291 293 293 293 294 295 296 296 295 294 292 292 292 290 289 287 286 286 286 286 285 284 284 282 279 277 277 277 276 276 275 275
286 287 288 289 290 291 293 295 294 295 296 296 296 296 295 295 293 292 291 291 289 287 286 286 286 286 287 286 286 285 281 278 278 278 277 277 276 276
288 288 289 289 290 290 292 293 294 294 296 296 296 296 295 295 294 294 293 292 291 290 288 287 286 286 286 288 288 288 285 280 278 278 278 277 278 276
287 289 289 290 290 290 291 292 293 294 295 297 297 296 295 295 295 294 294 293 291 289 287 286 286 287 288 289 289 289 288 285 281 280 279 278 278 277
287 288 287 288 289 290 290 291 292 293 294 295 295 296 295 295 295 295 294 294 290 288 287 287 287 288 288 288 288 289 290 288 286 283 282 280 279 278
287 287 286 287 289 290 290 290 290 290 291 292 294 295 296 295 295 294 294 293 290 288 288 288 287 288 290 290 289 289 289 289 289 288 285 284 284 282
286 286 286 287 288 290 289 290 291 292 292 292 294 295 294 294 295 295 293 291 289 287 288 288 288 289 290 291 291 289 290 290 290 289 288 287 287 285
284 285 285 286 287 288 288 289 290 291 292 292 293 294 294 294 293 294 292 290 289 288 288 289 289 289 290 291 291 291 291 290 288 287 286 286 285 284
284 284 285 286 286 286 286 287 288 290 291 291 291 291 292 294 294 292 291 288 287 287 288 288 288 287 288 289 290 289 290 290 290 289 287 287 287 287
283 284 285 286 286 285 284 284 287 289 290 290 289 289 290 291 292 291 290 288 286 286 287 286 285 286 286 287 289 289 289 289 290 289 289 290 291 293
Height
5828 5826 5825 5823 5822 5820 5819 5817 5816 5815 5814 5812 5811 5810 5809 5809 5808 5808 5808 5808 5808 5808 5807 5807 5807 5807 5807 5807 5807 5807 5807 5808 5808 5808 5808 5808 5808 5808
5824 5822 5821 5819 5817 5816 5814 5813 5811 5810 5809 5808 5807 5805 5804 5803 5802 5802 5802 5802 5801 5801 5801 5800 5800 5800 5800 5800 5800 5800 5800 5800 5800 5800 5800 5800 5800 5800
5819 5818 5816 5814 5813 5811 5809 5808 5806 5805 5804 5803 5802 5800 5798 5797 5797 5796 5796 5795 5795 5795 5794 5794 5794 5793 5793 5793 5793 5793 5793 5793 5793 5793 5793 5793 5793 5793
5815 5813 5811 5810 5808 5806 5804 5803 5802 5801 5799 5798 5797 5795 5793 5792 5791 5790 5790 5789 5789 5788 5788 5787 5787 5787 5786 5786 5786 5786 5786 5786 5785 5785 5786 5786 5785 5785
5810 5808 5806 5805 5803 5801 5800 5798 5797 5795 5794 5793 5791 5790 5788 5786 5785 5785 5784 5783 5783 5782 5782 5781 5780 5780 5779 5779 5779 5779 5778 5778 5778 5778 5777 5777 5777 5777
5805 5803 5801 5799 5798 5797 5795 5793 5792 5790 5789 5787 5786 5784 5783 5781 5780 5779 5778 5778 5777 5776 5775 5774 5773 5773 5772 5771 5771 5771 5770 5770 5770 5770 5769 5769 5769 5769
5799 5798 5796 5794 5793 5791 5790 5788 5787 5785 5783 5782 5780 5779 5777 5776 5775 5773 5773 5772 5771 5770 5769 5768 5767 5766 5765 5764 5763 5763 5762 5762 5762 5761 5761 5761 5761 5760
5794 5792 5790 5789 5787 5786 5784 5783 5781 5780 5778 5777 5775 5773 5772 5770 5769 5768 5766 5766 5765 5764 5762 5761 5759 5758 5757 5756 5755 5754 5754 5754 5753 5753 5753 5753 5753 5752
5788 5787 5785 5783 5782 5781 5779 5777 5776 5774 5773 5771 5770 5767 5766 5764 5763 5762 5760 5759 5758 5756 5755 5754 5752 5751 5749 5748 5747 5746 5746 5745 5745 5745 5744 5744 5744 5743
5783 5781 5779 5777 5776 5775 5773 5772 5770 5768 5767 5765 5763 5761 5759 5758 5756 5755 5753 5752 5751 5749 5747 5747 5745 5744 5742 5741 5739 5739 5738 5737 5737 5736 5736 5736 5735 5735
5777 5775 5773 5772 5771 5769 5768 5766 5764 5762 5760 5758 5756 5754 5752 5751 5749 5748 5746 5745 5743 5742 5740 5739 5738 5736 5735 5734 5732 5731 5730 5729 5728 5728 5727 5727 5726 5725
5770 5769 5767 5766 5765 5763 5761 5760 5758 5756 5754 5752 5749 5747 5746 5744 5742 5740 5739 5737 5736 5734 5733 5731 5730 5729 5728 5726 5724 5723 5722 5721 5720 5719 5719 5718 5717 5717
5764 5763 5761 5759 5758 5757 5755 5753 5751 5749 5747 5745 5743 5741 5739 5737 5735 5733 5731 5729 5728 5726 5725 5723 5722 5720 5719 5718 5716 5714 5713 5712 5711 5710 5710 5709 5708 5708
5758 5756 5755 5753 5752 5750 5749 5747 5744 5742 5741 5738 5736 5734 5732 5730 5727 5725 5723 5721 5720 5718 5717 5715 5714 5712 5711 5710 5708 5706 5705 5703 5702 5702 5701 5700 5699 5698
5751 5750 5748 5746 5745 5743 5742 5740 5738 5736 5734 5732 5729 5727 5724 5722 5720 5718 5716 5714 5712 5710 5708 5707 5706 5704 5703 5701 5700 5698 5697 5695 5694 5693 5692 5691 5690 5690
5744 5742 5740 5739 5738 5736 5734 5733 5731 5729 5727 5725 5722 5719 5717 5714 5712 5710 5708 5706 5704 5702 5700 5699 5697 5696 5695 5694 5692 5690 5689 5688 5686 5685 5684 5683 5682 5681
5736 5735 5733 5732 5730 5729 5727 5725 5723 5721 5719 5717 5714 5712 5709 5707 5704 5702 5700 5698 5696 5695 5693 5692 5690 5689 5688 5686 5685 5683 5681 5680 5679 5678 5677 5676 5674 5673
5728 5727 5726 5724 5723 5721 5720 5718 5716 5714 5712 5709 5707 5704 5702 5699 5697 5695 5693 5691 5689 5687 5686 5685 5683 5682 5681 5679 5678 5676 5674 5673 5671 5670 5669 5668 5667 5666
5720 5719 5718 5717 5715 5713 5712 5710 5708 5706 5704 5702 5699 5697 5694 5692 5690 5688 5686 5684 5682 5681 5679 5678 5677 5675 5674 5672 5670 5668 5667 5665 5664 5663 5661 5661 5660 5659
5712 5711 5710 5708 5707 5705 5704 5702 5700 5698 5696 5694 5692 5689 5687 5685 5683 5681 5679 5677 5675 5674 5673 5671 5670 5668 5667 5665 5663 5661 5660 5658 5657 5656 5655 5654 5653 5652
5704 5702 5701 5700 5698 5697 5696 5694 5692 5690 5688 5686 5684 5682 5680 5678 5676 5674 5672 5671 5669 5668 5666 5665 5663 5661 5660 5658 5657 5655 5653 5652 5650 5650 5648 5648 5646 5645
5695 5694 5692 5691 5690 5688 5687 5686 5684 5682 5680 5678 5676 5674 5673 5671 5669 5667 5665 5664 5662 5661 5660 5658 5656 5655 5654 5652 5650 5649 5647 5646 5644 5642 5641 5640 5639 5638
5686 5685 5684 5682 5681 5679 5678 5677 5676 5674 5672 5670 5668 5667 5665 5663 5662 5660 5658 5657 5655 5654 5653 5651 5650 5649 5647 5646 5644 5643 5641 5640 5638 5636 5635 5633 5631 5630